Wichita, KS

7:23 AM CST on February 22, 2018 (GMT -0600)
Wichita Eisenhower National Airport

Weather History for KICT - February, 2014

Change the Weather History Date:

Wednesday, February 19, 2014

  Actual Average Record
Temperature  
Mean Temperature 46 °F 38 °F  
Max Temperature 59 °F 49 °F 74 °F (1930)
Min Temperature 33 °F 27 °F 2 °F (1975)
Degree Days  
Heating Degree Days 19 27  
Month to date heating degree days 689 554  
Since 1 July heating degree days 3663 3414  
Cooling Degree Days 0 0  
Month to date cooling degree days 0 0  
Year to date cooling degree days 0 0  
Moisture  
Dew Point 39 °F    
Average Humidity 63    
Maximum Humidity 100    
Minimum Humidity 26    
Precipitation  
Precipitation T in 0.05 in 1.36 in (1891)
Month to date precipitation 0.81 0.76  
Year to date precipitation 0.94 1.59  
Snow  
Snow 0.00 in 0.10 in 3.50 in (1902)
Month to date snowfall 13.0 2.5  
Since 1 July snowfall 19.4 11.7  
Snow Depth 0.00 in    
Sea Level Pressure  
Sea Level Pressure 29.71 in    
Wind  
Wind Speed 8 mph (SE)    
Max Wind Speed 18 mph    
Max Gust Speed 23 mph    
Visibility 7 miles    
Events Fog , Rain    
T = Trace of Precipitation, MM = Missing Value Source: NWS Daily Summary

Daily Weather History Graph

Daily Weather History Graph

Search for Another Location

Airport or City:

Trip Planner

Search our weather history database for the weather conditions in past years. The results will help you decide how hot, cold, wet, or windy it might be!

Date:

Astronomy

Feb. 19, 2014 Rise Set
Actual Time 7:14 AM CST 6:13 PM CST
Civil Twilight 6:47 AM CST 6:39 PM CST
Nautical Twilight 6:17 AM CST 7:10 PM CST
Astronomical Twilight 5:46 AM CST 7:40 PM CST
Moon 11:01 PM CST (2/19) 9:26 AM CST (2/19)
Length of Visible Light 11h 52m
Length of Day
10h 58m
Waning Gibbous, 79% of the Moon is Illuminated
Feb 19
Waning Gibbous
Feb 22
Last Quarter
Mar 1
New
Mar 8
First Quarter
Mar 16
Full

Hourly Weather History & Observations

Time (CST) Temp. Windchill Dew Point Humidity Pressure Visibility Wind Dir Wind Speed Gust Speed Precip Events Conditions
12:53 AM 44.1 °F 40.1 °F 28.0 °F 53% 29.98 in 10.0 mi North 6.9 mph - N/A   Partly Cloudy
1:53 AM 44.1 °F 39.5 °F 28.0 °F 53% 29.96 in 10.0 mi NNE 8.1 mph - N/A   Partly Cloudy
2:53 AM 34.0 °F 28.0 °F 27.0 °F 75% 30.01 in 10.0 mi West 6.9 mph - N/A   Clear
3:53 AM 35.1 °F 31.0 °F 27.0 °F 72% 29.99 in 10.0 mi NNW 4.6 mph - N/A   Clear
4:53 AM 35.1 °F - 27.0 °F 72% 29.99 in 10.0 mi Calm Calm - N/A   Scattered Clouds
5:53 AM 37.0 °F 33.3 °F 28.9 °F 73% 29.97 in 10.0 mi NNE 4.6 mph - N/A   Mostly Cloudy
6:53 AM 36.0 °F - 28.0 °F 73% 29.98 in 10.0 mi Calm Calm - N/A   Mostly Cloudy
7:53 AM 37.0 °F - 28.9 °F 73% 29.98 in 10.0 mi Calm Calm - N/A   Overcast
8:53 AM 43.0 °F 39.5 °F 30.0 °F 60% 29.95 in 10.0 mi East 5.8 mph - N/A   Overcast
9:53 AM 46.9 °F - 28.0 °F 48% 29.94 in 10.0 mi ESE 9.2 mph - N/A   Overcast
10:53 AM 50.0 °F - 28.9 °F 44% 29.90 in 10.0 mi ESE 13.8 mph - N/A   Overcast
11:53 AM 55.0 °F - 27.0 °F 34% 29.86 in 10.0 mi SE 16.1 mph - N/A   Overcast
12:53 PM 55.9 °F - 26.1 °F 32% 29.80 in 10.0 mi ESE 13.8 mph - N/A   Overcast
1:53 PM 57.0 °F - 25.0 °F 29% 29.76 in 10.0 mi ESE 8.1 mph - N/A   Overcast
2:53 PM 57.0 °F - 25.0 °F 29% 29.73 in 10.0 mi SE 11.5 mph - N/A   Overcast
3:53 PM 59.0 °F - 25.0 °F 27% 29.67 in 10.0 mi ESE 13.8 mph - N/A   Overcast
4:53 PM 59.0 °F - 27.0 °F 29% 29.64 in 10.0 mi ESE 11.5 mph - N/A   Overcast
5:53 PM 57.9 °F - 28.9 °F 33% 29.60 in 10.0 mi ESE 9.2 mph - N/A   Overcast
6:53 PM 57.0 °F - 36.0 °F 45% 29.60 in 10.0 mi SE 8.1 mph - N/A   Overcast
7:11 PM 57.0 °F - 39.0 °F 51% 29.58 in 10.0 mi SE 8.1 mph - 0.00 in Rain Light Rain
7:30 PM 57.0 °F - 42.1 °F 57% 29.58 in 10.0 mi SSE 5.8 mph - 0.00 in   Overcast
7:43 PM 57.0 °F - 46.0 °F 67% 29.57 in 10.0 mi SE 6.9 mph - 0.00 in   Overcast
7:53 PM 57.0 °F - 50.0 °F 77% 29.57 in 8.0 mi SSE 6.9 mph - 0.00 in   Overcast
8:13 PM 57.0 °F - 53.1 °F 87% 29.56 in 5.0 mi SSE 9.2 mph - N/A   Overcast
8:26 PM 55.9 °F - 54.0 °F 93% 29.56 in 4.0 mi SSE 5.8 mph - N/A   Overcast
8:45 PM 55.9 °F - 55.0 °F 97% 29.55 in 2.5 mi SSE 6.9 mph - N/A   Overcast
8:53 PM 55.9 °F - 55.0 °F 97% 29.54 in 2.0 mi SSE 6.9 mph - N/A   Overcast
9:11 PM 55.9 °F - 55.0 °F 97% 29.54 in 0.5 mi SE 6.9 mph - N/A   Overcast
9:20 PM 55.9 °F - 55.0 °F 97% 29.54 in 0.5 mi SSE 6.9 mph - N/A Fog Fog
9:53 PM 57.0 °F - 55.9 °F 96% 29.53 in 1.0 mi SSE 6.9 mph - N/A   Overcast
10:05 PM 55.9 °F - 55.0 °F 97% 29.52 in 2.5 mi South 9.2 mph - N/A   Overcast
10:36 PM 57.0 °F - 55.0 °F 93% 29.51 in 3.0 mi South 9.2 mph - N/A   Overcast
10:53 PM 57.9 °F - 55.9 °F 93% 29.49 in 3.0 mi South 15.0 mph - N/A   Mostly Cloudy
11:34 PM 57.9 °F - 57.0 °F 97% 29.48 in 2.5 mi South 13.8 mph - N/A   Overcast
11:50 PM 59.0 °F - 57.2 °F 94% 29.47 in 2.5 mi South 16.1 mph - N/A   Overcast
11:53 PM 59.0 °F - 57.0 °F 93% 29.46 in 2.5 mi South 13.8 mph - N/A   Overcast